owner,sensor,date,latitude,longitude,vertical_datum,mass_concentration_of_oxygen_in_sea_water,qcFlag 
SCCF RECON,ioos:station:SCCF:16:1,2010-11-01T00:00:00Z,26.4345,-81.9647,2.723,6.62,1111122 
SCCF RECON,ioos:station:SCCF:16:1,2010-11-01T01:00:00Z,26.4345,-81.9647,2.757,6.47,1111122 
SCCF RECON,ioos:station:SCCF:16:1,2010-11-01T02:00:00Z,26.4345,-81.9647,2.761,6.38,1111122 
SCCF RECON,ioos:station:SCCF:16:1,2010-11-01T03:00:00Z,26.4345,-81.9647,2.711,6.27,1111122 
SCCF RECON,ioos:station:SCCF:16:1,2010-11-01T04:00:00Z,26.4345,-81.9647,2.579,6.2,1111122 
SCCF RECON,ioos:station:SCCF:16:1,2010-11-01T05:00:00Z,26.4345,-81.9647,2.5,6.3,1111122 
SCCF RECON,ioos:station:SCCF:16:1,2010-11-01T06:00:00Z,26.4345,-81.9647,2.42,6.23,1111122 
SCCF RECON,ioos:station:SCCF:16:1,2010-11-01T07:00:00Z,26.4345,-81.9647,2.345,6.18,1111122 
SCCF RECON,ioos:station:SCCF:16:1,2010-11-01T08:00:00Z,26.4345,-81.9647,2.404,6.08,1111122 
SCCF RECON,ioos:station:SCCF:16:1,2010-11-01T09:00:00Z,26.4345,-81.9647,2.499,6.1,1111122 
SCCF RECON,ioos:station:SCCF:16:1,2010-11-01T10:00:00Z,26.4345,-81.9647,2.612,6.1,1111122 
SCCF RECON,ioos:station:SCCF:16:1,2010-11-01T11:00:00Z,26.4345,-81.9647,2.701,5.92,1111122 
SCCF RECON,ioos:station:SCCF:16:1,2010-11-01T12:00:00Z,26.4345,-81.9647,2.78,5.88,1111122 
SCCF RECON,ioos:station:SCCF:16:1,2010-11-01T13:00:00Z,26.4345,-81.9647,2.807,5.82,1111122 
SCCF RECON,ioos:station:SCCF:16:1,2010-11-01T14:00:00Z,26.4345,-81.9647,2.786,5.85,1111122 
SCCF RECON,ioos:station:SCCF:16:1,2010-11-01T15:00:00Z,26.4345,-81.9647,2.703,5.98,1111122 
SCCF RECON,ioos:station:SCCF:16:1,2010-11-01T16:00:00Z,26.4345,-81.9647,2.545,6.0,1111122 
SCCF RECON,ioos:station:SCCF:16:1,2010-11-01T17:00:00Z,26.4345,-81.9647,2.41,5.96,1111122 
SCCF RECON,ioos:station:SCCF:16:1,2010-11-01T18:00:00Z,26.4345,-81.9647,2.305,6.03,1111122 
SCCF RECON,ioos:station:SCCF:16:1,2010-11-01T19:00:00Z,26.4345,-81.9647,2.208,6.29,1111122 
SCCF RECON,ioos:station:SCCF:16:1,2010-11-01T20:00:00Z,26.4345,-81.9647,2.237,6.43,1111122 
SCCF RECON,ioos:station:SCCF:16:1,2010-11-01T21:00:00Z,26.4345,-81.9647,2.376,6.32,1111122 
SCCF RECON,ioos:station:SCCF:16:1,2010-11-01T22:00:00Z,26.4345,-81.9647,2.544,6.3,1111122 
SCCF RECON,ioos:station:SCCF:16:1,2010-11-01T23:00:00Z,26.4345,-81.9647,2.637,6.81,1111122 
SCCF RECON,ioos:station:SCCF:16:1,2010-11-02T00:00:00Z,26.4345,-81.9647,2.716,6.66,1111122 
SCCF RECON,ioos:station:SCCF:16:1,2010-11-02T01:00:00Z,26.4345,-81.9647,2.821,6.61,1111122 
SCCF RECON,ioos:station:SCCF:16:1,2010-11-02T02:00:00Z,26.4345,-81.9647,2.857,6.5,1111122 
SCCF RECON,ioos:station:SCCF:16:1,2010-11-02T03:00:00Z,26.4345,-81.9647,2.787,6.39,1111122 
SCCF RECON,ioos:station:SCCF:16:1,2010-11-02T04:00:00Z,26.4345,-81.9647,2.668,6.29,1111122 
SCCF RECON,ioos:station:SCCF:16:1,2010-11-02T05:00:00Z,26.4345,-81.9647,2.499,6.29,1111122 
SCCF RECON,ioos:station:SCCF:16:1,2010-11-02T06:00:00Z,26.4345,-81.9647,2.347,6.17,1111122 
SCCF RECON,ioos:station:SCCF:16:1,2010-11-02T07:00:00Z,26.4345,-81.9647,2.215,6.13,1111122 
SCCF RECON,ioos:station:SCCF:16:1,2010-11-02T08:00:00Z,26.4345,-81.9647,2.133,5.98,1111122 
SCCF RECON,ioos:station:SCCF:16:1,2010-11-02T09:00:00Z,26.4345,-81.9647,2.215,5.86,1111122 
SCCF RECON,ioos:station:SCCF:16:1,2010-11-02T10:00:00Z,26.4345,-81.9647,2.366,5.87,1111122 
SCCF RECON,ioos:station:SCCF:16:1,2010-11-02T11:00:00Z,26.4345,-81.9647,2.508,5.84,1111122 
SCCF RECON,ioos:station:SCCF:16:1,2010-11-02T12:00:00Z,26.4345,-81.9647,2.626,5.96,1111122 
SCCF RECON,ioos:station:SCCF:16:1,2010-11-02T13:00:00Z,26.4345,-81.9647,2.725,6.03,1111122 
SCCF RECON,ioos:station:SCCF:16:1,2010-11-02T14:00:00Z,26.4345,-81.9647,2.758,6.02,1111122 
SCCF RECON,ioos:station:SCCF:16:1,2010-11-02T15:00:00Z,26.4345,-81.9647,2.741,6.14,1111122 
SCCF RECON,ioos:station:SCCF:16:1,2010-11-02T16:00:00Z,26.4345,-81.9647,2.663,6.2,1111122 
SCCF RECON,ioos:station:SCCF:16:1,2010-11-02T17:00:00Z,26.4345,-81.9647,2.514,6.2,1111122 
SCCF RECON,ioos:station:SCCF:16:1,2010-11-02T18:00:00Z,26.4345,-81.9647,2.386,6.21,1111122 
SCCF RECON,ioos:station:SCCF:16:1,2010-11-02T19:00:00Z,26.4345,-81.9647,2.296,6.19,1111122 
SCCF RECON,ioos:station:SCCF:16:1,2010-11-02T20:00:00Z,26.4345,-81.9647,2.202,6.11,1111122 
SCCF RECON,ioos:station:SCCF:16:1,2010-11-02T21:00:00Z,26.4345,-81.9647,2.244,6.24,1111122 
SCCF RECON,ioos:station:SCCF:16:1,2010-11-02T22:00:00Z,26.4345,-81.9647,2.42,6.18,1111122 
SCCF RECON,ioos:station:SCCF:16:1,2010-11-02T23:00:00Z,26.4345,-81.9647,2.587,6.27,1111122 
SCCF RECON,ioos:station:SCCF:16:1,2010-11-03T00:00:00Z,26.4345,-81.9647,2.724,6.08,1111122 
SCCF RECON,ioos:station:SCCF:16:1,2010-11-03T01:00:00Z,26.4345,-81.9647,2.807,6.1,1111122 
SCCF RECON,ioos:station:SCCF:16:1,2010-11-03T02:00:00Z,26.4345,-81.9647,2.892,6.12,1111122 
SCCF RECON,ioos:station:SCCF:16:1,2010-11-03T03:00:00Z,26.4345,-81.9647,2.919,6.11,1111122 
SCCF RECON,ioos:station:SCCF:16:1,2010-11-03T04:00:00Z,26.4345,-81.9647,2.765,6.02,1111122 
SCCF RECON,ioos:station:SCCF:16:1,2010-11-03T05:00:00Z,26.4345,-81.9647,2.573,5.93,1111122 
SCCF RECON,ioos:station:SCCF:16:1,2010-11-03T06:00:00Z,26.4345,-81.9647,2.403,5.88,1111122 
SCCF RECON,ioos:station:SCCF:16:1,2010-11-03T07:00:00Z,26.4345,-81.9647,2.237,5.82,1111122 
SCCF RECON,ioos:station:SCCF:16:1,2010-11-03T08:00:00Z,26.4345,-81.9647,2.094,5.79,1111122 
SCCF RECON,ioos:station:SCCF:16:1,2010-11-03T09:00:00Z,26.4345,-81.9647,2.019,5.82,1111122 
SCCF RECON,ioos:station:SCCF:16:1,2010-11-03T10:00:00Z,26.4345,-81.9647,2.184,5.83,1111122 
SCCF RECON,ioos:station:SCCF:16:1,2010-11-03T11:00:00Z,26.4345,-81.9647,2.37,5.73,1111122 
SCCF RECON,ioos:station:SCCF:16:1,2010-11-03T12:00:00Z,26.4345,-81.9647,2.537,5.75,1111122 
SCCF RECON,ioos:station:SCCF:16:1,2010-11-03T13:00:00Z,26.4345,-81.9647,2.651,5.79,1111122 
SCCF RECON,ioos:station:SCCF:16:1,2010-11-03T14:00:00Z,26.4345,-81.9647,2.763,5.75,1111122 
SCCF RECON,ioos:station:SCCF:16:1,2010-11-03T15:00:00Z,26.4345,-81.9647,2.824,5.88,1111122 
SCCF RECON,ioos:station:SCCF:16:1,2010-11-03T16:00:00Z,26.4345,-81.9647,2.837,6.03,1111122 
SCCF RECON,ioos:station:SCCF:16:1,2010-11-03T17:00:00Z,26.4345,-81.9647,2.696,6.0,1111122 
SCCF RECON,ioos:station:SCCF:16:1,2010-11-03T18:00:00Z,26.4345,-81.9647,2.53,6.05,1111122 
SCCF RECON,ioos:station:SCCF:16:1,2010-11-03T19:00:00Z,26.4345,-81.9647,2.481,6.23,1111122 
SCCF RECON,ioos:station:SCCF:16:1,2010-11-03T20:00:00Z,26.4345,-81.9647,2.376,6.26,1111122 
SCCF RECON,ioos:station:SCCF:16:1,2010-11-03T21:00:00Z,26.4345,-81.9647,2.34,6.19,1111122 
SCCF RECON,ioos:station:SCCF:16:1,2010-11-03T22:00:00Z,26.4345,-81.9647,2.401,6.17,1111122 
SCCF RECON,ioos:station:SCCF:16:1,2010-11-03T23:00:00Z,26.4345,-81.9647,2.532,6.17,1111122 
SCCF RECON,ioos:station:SCCF:16:1,2010-11-04T00:00:00Z,26.4345,-81.9647,2.711,6.17,1111122 
SCCF RECON,ioos:station:SCCF:16:1,2010-11-04T01:00:00Z,26.4345,-81.9647,2.831,6.28,1111122 
SCCF RECON,ioos:station:SCCF:16:1,2010-11-04T02:00:00Z,26.4345,-81.9647,2.891,6.4,1111122 
SCCF RECON,ioos:station:SCCF:16:1,2010-11-04T03:00:00Z,26.4345,-81.9647,2.941,6.21,1111122 
SCCF RECON,ioos:station:SCCF:16:1,2010-11-04T04:00:00Z,26.4345,-81.9647,2.904,5.99,1111122 
SCCF RECON,ioos:station:SCCF:16:1,2010-11-04T05:00:00Z,26.4345,-81.9647,2.753,5.89,1111122 
SCCF RECON,ioos:station:SCCF:16:1,2010-11-04T06:00:00Z,26.4345,-81.9647,2.58,5.86,1111122 
SCCF RECON,ioos:station:SCCF:16:1,2010-11-04T07:00:00Z,26.4345,-81.9647,2.445,5.86,1111122 
SCCF RECON,ioos:station:SCCF:16:1,2010-11-04T08:00:00Z,26.4345,-81.9647,2.127,6.01,1111122 
SCCF RECON,ioos:station:SCCF:16:1,2010-11-04T09:00:00Z,26.4345,-81.9647,2.051,5.83,1111122 
SCCF RECON,ioos:station:SCCF:16:1,2010-11-04T10:00:00Z,26.4345,-81.9647,1.895,5.96,1111122 
SCCF RECON,ioos:station:SCCF:16:1,2010-11-04T11:00:00Z,26.4345,-81.9647,2.149,5.95,1111122 
SCCF RECON,ioos:station:SCCF:16:1,2010-11-04T12:00:00Z,26.4345,-81.9647,2.469,6.02,1111122 
SCCF RECON,ioos:station:SCCF:16:1,2010-11-04T13:00:00Z,26.4345,-81.9647,2.695,5.88,1111122 
SCCF RECON,ioos:station:SCCF:16:1,2010-11-04T14:00:00Z,26.4345,-81.9647,2.8,5.87,1111122 
SCCF RECON,ioos:station:SCCF:16:1,2010-11-04T15:00:00Z,26.4345,-81.9647,2.912,5.92,1111122 
SCCF RECON,ioos:station:SCCF:16:1,2010-11-04T16:00:00Z,26.4345,-81.9647,2.968,5.81,1111122 
SCCF RECON,ioos:station:SCCF:16:1,2010-11-04T17:00:00Z,26.4345,-81.9647,2.934,5.78,1111122 
SCCF RECON,ioos:station:SCCF:16:1,2010-11-04T18:00:00Z,26.4345,-81.9647,2.813,5.8,1111122 
SCCF RECON,ioos:station:SCCF:16:1,2010-11-04T19:00:00Z,26.4345,-81.9647,2.723,5.79,1111122 
SCCF RECON,ioos:station:SCCF:16:1,2010-11-04T20:00:00Z,26.4345,-81.9647,2.587,5.86,1111122 
SCCF RECON,ioos:station:SCCF:16:1,2010-11-04T21:00:00Z,26.4345,-81.9647,2.447,5.83,1111122 
SCCF RECON,ioos:station:SCCF:16:1,2010-11-04T22:00:00Z,26.4345,-81.9647,2.505,5.77,1111122 
SCCF RECON,ioos:station:SCCF:16:1,2010-11-04T23:00:00Z,26.4345,-81.9647,2.566,5.8,1111122 
SCCF RECON,ioos:station:SCCF:16:1,2010-11-05T00:00:00Z,26.4345,-81.9647,2.762,5.75,1111122 
SCCF RECON,ioos:station:SCCF:16:1,2010-11-05T01:00:00Z,26.4345,-81.9647,2.893,5.98,1111122 
SCCF RECON,ioos:station:SCCF:16:1,2010-11-05T02:00:00Z,26.4345,-81.9647,3.016,5.93,1111122 
SCCF RECON,ioos:station:SCCF:16:1,2010-11-05T03:00:00Z,26.4345,-81.9647,3.065,5.95,1111122 
SCCF RECON,ioos:station:SCCF:16:1,2010-11-05T04:00:00Z,26.4345,-81.9647,3.078,5.94,1111122 
SCCF RECON,ioos:station:SCCF:16:1,2010-11-05T05:00:00Z,26.4345,-81.9647,2.966,5.89,1111122 
SCCF RECON,ioos:station:SCCF:16:1,2010-11-05T06:00:00Z,26.4345,-81.9647,2.738,5.85,1111122 
SCCF RECON,ioos:station:SCCF:16:1,2010-11-05T07:00:00Z,26.4345,-81.9647,2.427,5.74,1111122 
SCCF RECON,ioos:station:SCCF:16:1,2010-11-05T08:00:00Z,26.4345,-81.9647,2.002,5.61,1111122 
SCCF RECON,ioos:station:SCCF:16:1,2010-11-05T09:00:00Z,26.4345,-81.9647,1.769,5.63,1111122 
SCCF RECON,ioos:station:SCCF:16:1,2010-11-05T10:00:00Z,26.4345,-81.9647,1.602,5.6,1111122 
SCCF RECON,ioos:station:SCCF:16:1,2010-11-05T11:00:00Z,26.4345,-81.9647,1.639,5.6,1111122 
SCCF RECON,ioos:station:SCCF:16:1,2010-11-05T12:00:00Z,26.4345,-81.9647,1.808,5.68,1111122 
SCCF RECON,ioos:station:SCCF:16:1,2010-11-05T13:00:00Z,26.4345,-81.9647,2.149,5.78,1111122 
SCCF RECON,ioos:station:SCCF:16:1,2010-11-05T14:00:00Z,26.4345,-81.9647,2.294,5.87,1111122 
SCCF RECON,ioos:station:SCCF:16:1,2010-11-05T15:00:00Z,26.4345,-81.9647,2.386,5.94,1111122 
SCCF RECON,ioos:station:SCCF:16:1,2010-11-05T16:00:00Z,26.4345,-81.9647,2.506,6.01,1111122 
SCCF RECON,ioos:station:SCCF:16:1,2010-11-05T17:00:00Z,26.4345,-81.9647,2.573,6.14,1111122 
SCCF RECON,ioos:station:SCCF:16:1,2010-11-05T18:00:00Z,26.4345,-81.9647,2.477,6.17,1111122 
SCCF RECON,ioos:station:SCCF:16:1,2010-11-05T19:00:00Z,26.4345,-81.9647,2.369,6.09,1111122 
SCCF RECON,ioos:station:SCCF:16:1,2010-11-05T20:00:00Z,26.4345,-81.9647,2.247,5.96,1111122 
SCCF RECON,ioos:station:SCCF:16:1,2010-11-05T21:00:00Z,26.4345,-81.9647,2.214,5.91,1111122 
SCCF RECON,ioos:station:SCCF:16:1,2010-11-05T22:00:00Z,26.4345,-81.9647,2.172,6.04,1111122 
SCCF RECON,ioos:station:SCCF:16:1,2010-11-05T23:00:00Z,26.4345,-81.9647,2.225,6.11,1111122 
SCCF RECON,ioos:station:SCCF:16:1,2010-11-06T00:00:00Z,26.4345,-81.9647,2.374,6.08,1111122 
SCCF RECON,ioos:station:SCCF:16:1,2010-11-06T01:00:00Z,26.4345,-81.9647,2.558,6.16,1111122 
SCCF RECON,ioos:station:SCCF:16:1,2010-11-06T02:00:00Z,26.4345,-81.9647,2.764,6.29,1111122 
SCCF RECON,ioos:station:SCCF:16:1,2010-11-06T03:00:00Z,26.4345,-81.9647,2.878,6.36,1111122 
SCCF RECON,ioos:station:SCCF:16:1,2010-11-06T04:00:00Z,26.4345,-81.9647,2.866,6.44,1111122 
SCCF RECON,ioos:station:SCCF:16:1,2010-11-06T05:00:00Z,26.4345,-81.9647,2.762,6.34,1111122 
SCCF RECON,ioos:station:SCCF:16:1,2010-11-06T06:00:00Z,26.4345,-81.9647,2.609,6.32,1111122 
SCCF RECON,ioos:station:SCCF:16:1,2010-11-06T07:00:00Z,26.4345,-81.9647,2.378,6.05,1111122 
SCCF RECON,ioos:station:SCCF:16:1,2010-11-06T08:00:00Z,26.4345,-81.9647,2.179,5.84,1111122 
SCCF RECON,ioos:station:SCCF:16:1,2010-11-06T09:00:00Z,26.4345,-81.9647,1.986,5.93,1111122 
SCCF RECON,ioos:station:SCCF:16:1,2010-11-06T10:00:00Z,26.4345,-81.9647,1.732,5.99,1111122 
SCCF RECON,ioos:station:SCCF:16:1,2010-11-06T11:00:00Z,26.4345,-81.9647,1.613,6.25,1111122 
SCCF RECON,ioos:station:SCCF:16:1,2010-11-06T12:00:00Z,26.4345,-81.9647,1.72,6.2,1111122 
SCCF RECON,ioos:station:SCCF:16:1,2010-11-06T13:00:00Z,26.4345,-81.9647,1.953,6.33,1111122 
SCCF RECON,ioos:station:SCCF:16:1,2010-11-06T14:00:00Z,26.4345,-81.9647,2.159,6.38,1111122 
SCCF RECON,ioos:station:SCCF:16:1,2010-11-06T15:00:00Z,26.4345,-81.9647,2.312,6.45,1111122 
SCCF RECON,ioos:station:SCCF:16:1,2010-11-06T16:00:00Z,26.4345,-81.9647,2.423,6.54,1111122 
SCCF RECON,ioos:station:SCCF:16:1,2010-11-06T17:00:00Z,26.4345,-81.9647,2.539,6.5,1111122 
SCCF RECON,ioos:station:SCCF:16:1,2010-11-06T18:00:00Z,26.4345,-81.9647,2.54,6.7,1111122 
SCCF RECON,ioos:station:SCCF:16:1,2010-11-06T19:00:00Z,26.4345,-81.9647,2.453,6.75,1111122 
SCCF RECON,ioos:station:SCCF:16:1,2010-11-06T20:00:00Z,26.4345,-81.9647,2.359,6.7,1111122 
SCCF RECON,ioos:station:SCCF:16:1,2010-11-06T21:00:00Z,26.4345,-81.9647,2.304,6.5,1111122 
SCCF RECON,ioos:station:SCCF:16:1,2010-11-06T22:00:00Z,26.4345,-81.9647,2.266,6.62,1111122 
SCCF RECON,ioos:station:SCCF:16:1,2010-11-06T23:00:00Z,26.4345,-81.9647,2.268,6.61,1111122 
SCCF RECON,ioos:station:SCCF:16:1,2010-11-07T00:00:00Z,26.4345,-81.9647,2.326,6.65,1111122 
SCCF RECON,ioos:station:SCCF:16:1,2010-11-07T01:00:00Z,26.4345,-81.9647,2.453,6.68,1111122 
SCCF RECON,ioos:station:SCCF:16:1,2010-11-07T02:00:00Z,26.4345,-81.9647,2.597,6.81,1111122 
SCCF RECON,ioos:station:SCCF:16:1,2010-11-07T03:00:00Z,26.4345,-81.9647,2.727,6.67,1111122 
SCCF RECON,ioos:station:SCCF:16:1,2010-11-07T04:00:00Z,26.4345,-81.9647,2.782,6.6,1111122 
SCCF RECON,ioos:station:SCCF:16:1,2010-11-07T05:00:00Z,26.4345,-81.9647,2.759,6.77,1111122 
SCCF RECON,ioos:station:SCCF:16:1,2010-11-07T06:00:00Z,26.4345,-81.9647,2.615,6.62,1111122 
SCCF RECON,ioos:station:SCCF:16:1,2010-11-07T07:00:00Z,26.4345,-81.9647,2.414,6.36,1111122 
SCCF RECON,ioos:station:SCCF:16:1,2010-11-07T08:00:00Z,26.4345,-81.9647,2.201,6.31,1111122 
SCCF RECON,ioos:station:SCCF:16:1,2010-11-07T09:00:00Z,26.4345,-81.9647,2.049,6.32,1111122 
SCCF RECON,ioos:station:SCCF:16:1,2010-11-07T10:00:00Z,26.4345,-81.9647,1.83,6.64,1111122 
SCCF RECON,ioos:station:SCCF:16:1,2010-11-07T11:00:00Z,26.4345,-81.9647,1.678,6.87,1111122 
SCCF RECON,ioos:station:SCCF:16:1,2010-11-07T12:00:00Z,26.4345,-81.9647,1.615,6.87,1111122 
SCCF RECON,ioos:station:SCCF:16:1,2010-11-07T13:00:00Z,26.4345,-81.9647,1.7,6.84,1111122 
SCCF RECON,ioos:station:SCCF:16:1,2010-11-07T14:00:00Z,26.4345,-81.9647,1.959,6.87,1111122 
SCCF RECON,ioos:station:SCCF:16:1,2010-11-07T15:00:00Z,26.4345,-81.9647,2.191,7.08,1111122 
SCCF RECON,ioos:station:SCCF:16:1,2010-11-07T16:00:00Z,26.4345,-81.9647,2.373,7.17,1111122 
SCCF RECON,ioos:station:SCCF:16:1,2010-11-07T17:00:00Z,26.4345,-81.9647,2.471,7.28,1111122 
SCCF RECON,ioos:station:SCCF:16:1,2010-11-07T18:00:00Z,26.4345,-81.9647,2.528,7.43,1111122 
SCCF RECON,ioos:station:SCCF:16:1,2010-11-07T19:00:00Z,26.4345,-81.9647,2.527,7.64,1111122 
SCCF RECON,ioos:station:SCCF:16:1,2010-11-07T20:00:00Z,26.4345,-81.9647,2.481,7.71,1111122 
SCCF RECON,ioos:station:SCCF:16:1,2010-11-07T21:00:00Z,26.4345,-81.9647,2.427,7.79,1111122 
SCCF RECON,ioos:station:SCCF:16:1,2010-11-07T22:00:00Z,26.4345,-81.9647,2.42,7.83,1111122 
SCCF RECON,ioos:station:SCCF:16:1,2010-11-07T23:00:00Z,26.4345,-81.9647,2.377,7.49,1111122 
SCCF RECON,ioos:station:SCCF:16:1,2010-11-08T00:00:00Z,26.4345,-81.9647,2.372,7.29,1111122 
SCCF RECON,ioos:station:SCCF:16:1,2010-11-08T01:00:00Z,26.4345,-81.9647,2.395,7.12,1111122 
SCCF RECON,ioos:station:SCCF:16:1,2010-11-08T02:00:00Z,26.4345,-81.9647,2.501,7.21,1111122 
SCCF RECON,ioos:station:SCCF:16:1,2010-11-08T03:00:00Z,26.4345,-81.9647,2.628,7.47,1111122 
SCCF RECON,ioos:station:SCCF:16:1,2010-11-08T04:00:00Z,26.4345,-81.9647,2.728,7.4,1111122 
SCCF RECON,ioos:station:SCCF:16:1,2010-11-08T05:00:00Z,26.4345,-81.9647,2.741,7.35,1111122 
SCCF RECON,ioos:station:SCCF:16:1,2010-11-08T06:00:00Z,26.4345,-81.9647,2.67,7.23,1111122 
SCCF RECON,ioos:station:SCCF:16:1,2010-11-08T07:00:00Z,26.4345,-81.9647,2.547,7.07,1111122 
SCCF RECON,ioos:station:SCCF:16:1,2010-11-08T08:00:00Z,26.4345,-81.9647,2.357,7.0,1111122 
SCCF RECON,ioos:station:SCCF:16:1,2010-11-08T09:00:00Z,26.4345,-81.9647,2.131,6.95,1111122 
SCCF RECON,ioos:station:SCCF:16:1,2010-11-08T10:00:00Z,26.4345,-81.9647,1.94,7.01,1111122 
SCCF RECON,ioos:station:SCCF:16:1,2010-11-08T11:00:00Z,26.4345,-81.9647,1.821,7.04,1111122 
SCCF RECON,ioos:station:SCCF:16:1,2010-11-08T12:00:00Z,26.4345,-81.9647,1.683,7.22,1111122 
SCCF RECON,ioos:station:SCCF:16:1,2010-11-08T13:00:00Z,26.4345,-81.9647,1.686,7.19,1111122 
SCCF RECON,ioos:station:SCCF:16:1,2010-11-08T14:00:00Z,26.4345,-81.9647,1.831,7.19,1111122 
SCCF RECON,ioos:station:SCCF:16:1,2010-11-08T15:00:00Z,26.4345,-81.9647,2.068,7.26,1111122 
SCCF RECON,ioos:station:SCCF:16:1,2010-11-08T16:00:00Z,26.4345,-81.9647,2.298,7.49,1111122 
SCCF RECON,ioos:station:SCCF:16:1,2010-11-08T17:00:00Z,26.4345,-81.9647,2.442,7.64,1111122 
SCCF RECON,ioos:station:SCCF:16:1,2010-11-08T18:00:00Z,26.4345,-81.9647,2.551,7.71,1111122 
SCCF RECON,ioos:station:SCCF:16:1,2010-11-08T19:00:00Z,26.4345,-81.9647,2.593,7.79,1111122 
SCCF RECON,ioos:station:SCCF:16:1,2010-11-08T20:00:00Z,26.4345,-81.9647,2.578,7.8,1111122 
SCCF RECON,ioos:station:SCCF:16:1,2010-11-08T21:00:00Z,26.4345,-81.9647,2.524,7.83,1111122 
SCCF RECON,ioos:station:SCCF:16:1,2010-11-08T22:00:00Z,26.4345,-81.9647,2.48,7.7,1111122 
SCCF RECON,ioos:station:SCCF:16:1,2010-11-08T23:00:00Z,26.4345,-81.9647,2.461,7.64,1111122 
SCCF RECON,ioos:station:SCCF:16:1,2010-11-09T00:00:00Z,26.4345,-81.9647,2.465,7.71,1111122 
SCCF RECON,ioos:station:SCCF:16:1,2010-11-09T01:00:00Z,26.4345,-81.9647,2.464,7.87,1111122 
SCCF RECON,ioos:station:SCCF:16:1,2010-11-09T02:00:00Z,26.4345,-81.9647,2.554,7.46,1111122 
SCCF RECON,ioos:station:SCCF:16:1,2010-11-09T03:00:00Z,26.4345,-81.9647,2.685,7.31,1111122 
SCCF RECON,ioos:station:SCCF:16:1,2010-11-09T04:00:00Z,26.4345,-81.9647,2.826,7.07,1111122 
SCCF RECON,ioos:station:SCCF:16:1,2010-11-09T05:00:00Z,26.4345,-81.9647,2.896,6.86,1111122 
SCCF RECON,ioos:station:SCCF:16:1,2010-11-09T06:00:00Z,26.4345,-81.9647,2.901,6.73,1111122 
SCCF RECON,ioos:station:SCCF:16:1,2010-11-09T07:00:00Z,26.4345,-81.9647,2.865,6.62,1111122 
SCCF RECON,ioos:station:SCCF:16:1,2010-11-09T08:00:00Z,26.4345,-81.9647,2.736,6.4,1111122 
SCCF RECON,ioos:station:SCCF:16:1,2010-11-09T09:00:00Z,26.4345,-81.9647,2.543,6.52,1111122 
SCCF RECON,ioos:station:SCCF:16:1,2010-11-09T10:00:00Z,26.4345,-81.9647,2.358,6.8,1111122 
SCCF RECON,ioos:station:SCCF:16:1,2010-11-09T11:00:00Z,26.4345,-81.9647,2.184,7.16,1111122 
SCCF RECON,ioos:station:SCCF:16:1,2010-11-09T12:00:00Z,26.4345,-81.9647,2.003,7.29,1111122 
SCCF RECON,ioos:station:SCCF:16:1,2010-11-09T13:00:00Z,26.4345,-81.9647,1.888,7.33,1111122 
SCCF RECON,ioos:station:SCCF:16:1,2010-11-09T14:00:00Z,26.4345,-81.9647,1.91,7.28,1111122 
SCCF RECON,ioos:station:SCCF:16:1,2010-11-09T15:00:00Z,26.4345,-81.9647,2.073,7.32,1111122 
SCCF RECON,ioos:station:SCCF:16:1,2010-11-09T16:00:00Z,26.4345,-81.9647,2.28,7.51,1111122 
SCCF RECON,ioos:station:SCCF:16:1,2010-11-09T17:00:00Z,26.4345,-81.9647,2.417,7.74,1111122 
SCCF RECON,ioos:station:SCCF:16:1,2010-11-09T18:00:00Z,26.4345,-81.9647,2.493,7.79,1111122 
SCCF RECON,ioos:station:SCCF:16:1,2010-11-09T19:00:00Z,26.4345,-81.9647,2.544,7.82,1111122 
SCCF RECON,ioos:station:SCCF:16:1,2010-11-09T20:00:00Z,26.4345,-81.9647,2.591,7.79,1111122 
SCCF RECON,ioos:station:SCCF:16:1,2010-11-09T21:00:00Z,26.4345,-81.9647,2.565,7.76,1111122 
SCCF RECON,ioos:station:SCCF:16:1,2010-11-09T22:00:00Z,26.4345,-81.9647,2.526,7.8,1111122 
SCCF RECON,ioos:station:SCCF:16:1,2010-11-09T23:00:00Z,26.4345,-81.9647,2.494,7.86,1111122 
SCCF RECON,ioos:station:SCCF:16:1,2010-11-10T00:00:00Z,26.4345,-81.9647,2.474,7.7,1111122 
SCCF RECON,ioos:station:SCCF:16:1,2010-11-10T01:00:00Z,26.4345,-81.9647,2.458,7.54,1111122 
SCCF RECON,ioos:station:SCCF:16:1,2010-11-10T02:00:00Z,26.4345,-81.9647,2.484,7.58,1111122 
SCCF RECON,ioos:station:SCCF:16:1,2010-11-10T03:00:00Z,26.4345,-81.9647,2.575,7.71,1111122 
SCCF RECON,ioos:station:SCCF:16:1,2010-11-10T04:00:00Z,26.4345,-81.9647,2.694,7.77,1111122 
SCCF RECON,ioos:station:SCCF:16:1,2010-11-10T05:00:00Z,26.4345,-81.9647,2.796,7.37,1111122 
SCCF RECON,ioos:station:SCCF:16:1,2010-11-10T06:00:00Z,26.4345,-81.9647,2.852,7.09,1111122 
SCCF RECON,ioos:station:SCCF:16:1,2010-11-10T07:00:00Z,26.4345,-81.9647,2.875,6.94,1111122 
SCCF RECON,ioos:station:SCCF:16:1,2010-11-10T08:00:00Z,26.4345,-81.9647,2.836,6.87,1111122 
SCCF RECON,ioos:station:SCCF:16:1,2010-11-10T09:00:00Z,26.4345,-81.9647,2.731,6.64,1111122 
SCCF RECON,ioos:station:SCCF:16:1,2010-11-10T10:00:00Z,26.4345,-81.9647,2.567,6.74,1111122 
SCCF RECON,ioos:station:SCCF:16:1,2010-11-10T11:00:00Z,26.4345,-81.9647,2.41,6.91,1111122 
SCCF RECON,ioos:station:SCCF:16:1,2010-11-10T12:00:00Z,26.4345,-81.9647,2.258,7.12,1111122 
SCCF RECON,ioos:station:SCCF:16:1,2010-11-10T13:00:00Z,26.4345,-81.9647,2.107,7.38,1111122 
SCCF RECON,ioos:station:SCCF:16:1,2010-11-10T14:00:00Z,26.4345,-81.9647,2.048,7.27,1111122 
SCCF RECON,ioos:station:SCCF:16:1,2010-11-10T15:00:00Z,26.4345,-81.9647,2.104,7.45,1111122 
SCCF RECON,ioos:station:SCCF:16:1,2010-11-10T16:00:00Z,26.4345,-81.9647,2.261,7.43,1111122 
SCCF RECON,ioos:station:SCCF:16:1,2010-11-10T17:00:00Z,26.4345,-81.9647,2.431,7.61,1111122 
SCCF RECON,ioos:station:SCCF:16:1,2010-11-10T18:00:00Z,26.4345,-81.9647,2.53,7.72,1111122 
SCCF RECON,ioos:station:SCCF:16:1,2010-11-10T19:00:00Z,26.4345,-81.9647,2.61,7.87,1111122 
SCCF RECON,ioos:station:SCCF:16:1,2010-11-10T20:00:00Z,26.4345,-81.9647,2.656,8.02,1111122 
SCCF RECON,ioos:station:SCCF:16:1,2010-11-10T21:00:00Z,26.4345,-81.9647,2.689,7.88,1111122 
SCCF RECON,ioos:station:SCCF:16:1,2010-11-10T22:00:00Z,26.4345,-81.9647,2.66,7.85,1111122 
SCCF RECON,ioos:station:SCCF:16:1,2010-11-10T23:00:00Z,26.4345,-81.9647,2.607,7.68,1111122 
SCCF RECON,ioos:station:SCCF:16:1,2010-11-11T00:00:00Z,26.4345,-81.9647,2.599,7.75,1111122 
SCCF RECON,ioos:station:SCCF:16:1,2010-11-11T01:00:00Z,26.4345,-81.9647,2.572,7.59,1111122 
SCCF RECON,ioos:station:SCCF:16:1,2010-11-11T02:00:00Z,26.4345,-81.9647,2.546,7.64,1111122 
SCCF RECON,ioos:station:SCCF:16:1,2010-11-11T03:00:00Z,26.4345,-81.9647,2.583,7.63,1111122 
SCCF RECON,ioos:station:SCCF:16:1,2010-11-11T04:00:00Z,26.4345,-81.9647,2.644,7.61,1111122 
SCCF RECON,ioos:station:SCCF:16:1,2010-11-11T05:00:00Z,26.4345,-81.9647,2.732,7.65,1111122 
SCCF RECON,ioos:station:SCCF:16:1,2010-11-11T06:00:00Z,26.4345,-81.9647,2.794,7.68,1111122 
SCCF RECON,ioos:station:SCCF:16:1,2010-11-11T07:00:00Z,26.4345,-81.9647,2.832,7.76,1111122 
SCCF RECON,ioos:station:SCCF:16:1,2010-11-11T08:00:00Z,26.4345,-81.9647,2.821,7.5,1111122 
SCCF RECON,ioos:station:SCCF:16:1,2010-11-11T09:00:00Z,26.4345,-81.9647,2.78,7.46,1111122 
SCCF RECON,ioos:station:SCCF:16:1,2010-11-11T10:00:00Z,26.4345,-81.9647,2.686,7.48,1111122 
SCCF RECON,ioos:station:SCCF:16:1,2010-11-11T11:00:00Z,26.4345,-81.9647,2.57,7.43,1111122 
SCCF RECON,ioos:station:SCCF:16:1,2010-11-11T12:00:00Z,26.4345,-81.9647,2.426,7.32,1111122 
SCCF RECON,ioos:station:SCCF:16:1,2010-11-11T13:00:00Z,26.4345,-81.9647,2.27,7.29,1111122 
SCCF RECON,ioos:station:SCCF:16:1,2010-11-11T14:00:00Z,26.4345,-81.9647,2.162,7.46,1111122 
SCCF RECON,ioos:station:SCCF:16:1,2010-11-11T15:00:00Z,26.4345,-81.9647,2.149,7.24,1111122 
SCCF RECON,ioos:station:SCCF:16:1,2010-11-11T16:00:00Z,26.4345,-81.9647,2.214,7.34,1111122 
SCCF RECON,ioos:station:SCCF:16:1,2010-11-11T17:00:00Z,26.4345,-81.9647,2.331,7.42,1111122 
SCCF RECON,ioos:station:SCCF:16:1,2010-11-11T18:00:00Z,26.4345,-81.9647,2.478,7.51,1111122 
SCCF RECON,ioos:station:SCCF:16:1,2010-11-11T19:00:00Z,26.4345,-81.9647,2.559,7.75,1111122 